DELTA 1 DEB, 8544

Orbit data source: Space-Track

DELTA 1 DEB, 8544 is space debris in SSO originally from a launch on Sun, 23 Jul 1972 UTC launched from the Air Force Western Test Range (AFWTR). Debris objects in space refer to the collection of defunct objects orbiting the Earth. Examples of debris include non-operational satellites, rocket bodies, and fragments generated from explosions, collisions, or faulty payload assembly.

Loading next visibility...
Identifier
8544, 1972-058GT
Orbit
SSO
Country
Flag of USUS
Related business
Manufacturer
Unknown
Mission
Spacecraft
Bus & Motor
Unknown
Mass
Unknown
Launch date (UTC)
1972-07-23 (54 years ago)
Launch vehicle
Unknown
Launch site
Air Force Western Test Range (AFWTR)
Object type
Payload
Rocket body
Debris
Shape & HBR
Unknown shape, 0.2 m
Radar Cross Section
Medium (>0.1 m² and <1 m²)

Expand to show TLE details & history
Last TLE update: 1 day ago

TLE from 1 day ago
0 DELTA 1 DEB
1 08544U 72058GT  26149.40293699  .00000236  00000-0  27370-3 0  9990
2 08544  97.4309 197.1088 0841845 154.3104 210.2441 12.74234050515594
Epoch: 2026-05-29T09:40Z
TLE epoch observation values (Epoch: 2026-05-29T09:40:13.755Z)
Latitude
-0.00001°
Longitude
165.11767°
Altitude
1,943.265 km
Speed
6.66 km/s
True Right ascension
13h 08m 26s
True Declination
0° 00' 00"
Sunlit
Object was in daylight at epoch
Visualization orbit readout
Latitude
Unknown
Longitude
Unknown
Altitude
Unknown
Speed
Unknown
Apparent Right ascension
Unknown
Apparent Declination
Unknown
Sunlit
N/A
Visualization observer readout
Local Sidereal Time
00:56:15
Azimuth
Unknown
Elevation
Unknown
Doppler factor
Unknown
Orbital elements
Apogee altitude
2,013.616 km
Perigee altitude
710.415 km
Semi-major axis
7,740.152 km
Eccentricity
0.08418
Inclination
97.4309°
RAAN
197.1088°
Arg. of periapsis
154.3104°
True anomaly
205.79563°
Mean anomaly
210.2441°
Eccentric anomaly
207.98105°
Mean motion
3.18727 °/min
Orbital period
112.95 mins
BSTAR
0.0002737
Loading maneuver chart data...
Computing Atmospheric mass density...
Loading historical data...
Loading historical data...
Loading historical data...
Loading historical data...
Loading historical data...
Loading historical data...
Loading historical data...

Documentation

Showing up to 5 results
|